Regional Weather Roundup
Issued by NWS

Home | Current Version | Previous Version | Graphics & Text | Print | Product List | Glossary Off
Versions: 1 2 3 4 5 6 7 8 9 10 11 12 13 14 15 16 17 18 19 20 21 22 23 24 25 26 27 28 29 30 31 32 33 34 35 36 37 38 39 40 41 42 43 44 45 46 47 48 49 50

000
ASUS43 KTOP 301508
RWRKS

WEATHER ROUNDUP FOR KANSAS
NATIONAL WEATHER SERVICE GOODLAND KS
1000 AM CDT MON MAR 30 2015

NOTE:  "FAIR" INDICATES FEW OR NO CLOUDS BELOW 12,000 FEET WITH NO
SIGNIFICANT WEATHER AND/OR OBSTRUCTIONS TO VISIBILITY.

KSZ001>006-013>018-027>032-041>047-301600-
NORTHWEST KANSAS

CITY           SKY/WX    TMP DP  RH WIND       PRES   REMARKS
GOODLAND       SUNNY     54  28  36 SW15      30.11S
HAYS           SUNNY     57  34  41 S18       30.14F
HILL CITY      SUNNY     57  30  35 S13       30.11F
RUSSELL        SUNNY     57  34  41 S21       30.12F
$$

KSZ061>065-074>080-084>089-301600-
SOUTHWEST KANSAS

CITY           SKY/WX    TMP DP  RH WIND       PRES   REMARKS
DODGE CITY     SUNNY     57  30  35 S20G28    30.18S
ELKHART          N/A     59  28  30 SW13        N/A
GARDEN CITY    SUNNY     57  33  40 S18       30.13F
GREAT BEND     SUNNY     57  36  44 S18       30.15F
LIBERAL        MOSUNNY   59  36  41 S20       30.19F
PRATT          SUNNY     55  34  44 S14       30.19S
$$

KSZ066>073-081>083-090>101-301600-
SOUTHEAST KANSAS

CITY           SKY/WX    TMP DP  RH WIND       PRES   REMARKS
CHANUTE        SUNNY     57  42  57 S9        30.20S
COFFEYVILLE    SUNNY     55  44  66 S3        30.21S
HUTCHINSON     SUNNY     58  35  42 S14       30.19S
MEDICINE LODGE   N/A     54  38  54 S12       30.20R
NEWTON         SUNNY     57  34  41 S15       30.20S
PARSONS        SUNNY     58  39  49 VRB7      30.22R
WICHITA INTL   SUNNY     58  35  42 S10       30.19S
WICHITA JABRA  SUNNY     58  35  42 S9        30.19S
WICHITA MCCONL SUNNY     58  34  39 SE9       30.19S
WINFIELD       SUNNY     59  39  47 SE13      30.21S
$$

KSZ007>012-019>026-033>040-048>060-102>105-301600-
NORTHEAST KANSAS

CITY           SKY/WX    TMP DP  RH WIND       PRES   REMARKS
CONCORDIA      SUNNY     57  29  34 SW21G26   30.13F
EMPORIA        SUNNY     56  35  45 S13       30.18R
LAWRENCE       SUNNY     53  37  54 S9        30.17F
MANHATTAN      SUNNY     55  36  48 SW9       30.16F
MARYSVILLE     SUNNY     54  34  47 SW12      30.14S
OLATHE IND     SUNNY     54  38  54 S10       30.17F
OLATHE EXE     SUNNY     55  38  52 S10       30.17F
SALINA         SUNNY     59  33  37 S13       30.17R
TOPEKA BILLARD SUNNY     55  34  45 S8        30.17F
TOPEKA FORBES  SUNNY     57  35  43 SW16      30.16F
$$


USA.gov is the U.S. government's official web portal to all federal, state and local government web resources and services.